IRIDIUM 106 1 41917U 17003A 26130.42049007 .00000052 00000+0 11663-4 0 9998 2 41917 86.3934 104.3458 0002451 78.8548 281.2923 14.34217580487791 IRIDIUM 103 1 41918U 17003B 26130.40780451 .00000087 00000+0 24012-4 0 9992 2 41918 86.3935 104.2509 0002504 92.0097 268.1386 14.34217979487817 IRIDIUM 109 1 41919U 17003C 26130.48391532 .00000068 00000+0 17255-4 0 9999 2 41919 86.3935 104.2780 0002331 88.1744 271.9719 14.34217941487790 IRIDIUM 102 1 41920U 17003D 26130.45220205 .00000067 00000+0 16943-4 0 9998 2 41920 86.3933 104.2156 0002242 86.6311 273.5141 14.34217495487871 IRIDIUM 105 1 41921U 17003E 26130.34104947 .00000196 00000+0 62852-4 0 9994 2 41921 86.3958 72.6897 0002211 92.6294 267.5155 14.34212483489717 IRIDIUM 104 1 41922U 17003F 26130.46488619 .00000062 00000+0 15213-4 0 9990 2 41922 86.3935 104.2523 0002333 93.8753 266.2710 14.34216983487865 IRIDIUM 114 1 41923U 17003G 26130.47123022 .00000050 00000+0 10792-4 0 9990 2 41923 86.3934 104.2330 0002394 91.0183 269.1287 14.34217861487840 IRIDIUM 108 1 41924U 17003H 26130.35998213 .00000015 00000+0 -16753-5 0 9996 2 41924 86.3955 72.5743 0002047 83.9490 276.1939 14.34217643489689 IRIDIUM 112 1 41925U 17003J 26130.45854427 .00000036 00000+0 58149-5 0 9993 2 41925 86.3931 104.0820 0002259 90.7295 269.4160 14.34217195487866 IRIDIUM 111 1 41926U 17003K 26130.44585939 .00000009 00000+0 -37433-5 0 9996 2 41926 86.3938 104.1575 0002242 88.2651 271.8802 14.34216897487848 IRIDIUM 113 1 42803U 17039A 26130.49559205 .00000131 00000+0 39730-4 0 9998 2 42803 86.3974 337.9410 0002195 92.7788 267.3659 14.34217762465786 IRIDIUM 123 1 42804U 17039B 26130.39753465 -.00000003 00000+0 -81950-5 0 9994 2 42804 86.3997 9.4327 0002235 84.1269 276.0182 14.34217420464535 IRIDIUM 120 1 42805U 17039C 26130.48924975 .00000041 00000+0 76770-5 0 9995 2 42805 86.3962 337.7311 0002133 83.4389 276.7050 14.34217767465772 IRIDIUM 115 1 42806U 17039D 26130.54125970 .00000231 00000+0 62653-4 0 9996 2 42806 86.4500 337.8330 0002418 83.5574 276.5902 14.43278859468830 IRIDIUM 118 1 42807U 17039E 26130.21994160 .00000018 00000+0 -78797-6 0 9998 2 42807 86.4000 9.5053 0002195 86.2973 273.8474 14.34217588464502 IRIDIUM 117 1 42808U 17039F 26130.37850659 .00000021 00000+0 33639-6 0 9999 2 42808 86.3999 9.3971 0002299 85.4609 274.6849 14.34217692464554 IRIDIUM 126 1 42809U 17039G 26130.40387731 .00000022 00000+0 63650-6 0 9997 2 42809 86.4002 9.4371 0002300 88.2449 271.9010 14.34217680464537 IRIDIUM 124 1 42810U 17039H 26130.54441839 .00000086 00000+0 19559-4 0 9991 2 42810 86.4455 306.1088 0002236 89.9500 270.1957 14.43283601469685 IRIDIUM 128 1 42811U 17039J 26130.46438359 .00000015 00000+0 -17766-5 0 9998 2 42811 86.3994 40.9157 0002263 78.7804 281.3646 14.34217684464576 IRIDIUM 121 1 42812U 17039K 26130.42290420 .00000178 00000+0 56510-4 0 9998 2 42812 86.4001 9.4565 0002155 83.8466 276.2975 14.34217696464415 IRIDIUM 133 1 42955U 17061A 26130.49609648 -.00000011 00000+0 -10926-4 0 9993 2 42955 86.3994 41.0192 0002172 84.2416 275.9028 14.34217456449377 IRIDIUM 100 1 42956U 17061B 26130.48975366 .00000013 00000+0 -25873-5 0 9995 2 42956 86.3990 40.9413 0002130 83.4700 276.6738 14.34217580449373 IRIDIUM 122 1 42957U 17061C 26130.45804117 .00000003 00000+0 -59709-5 0 9992 2 42957 86.3992 40.9548 0002188 85.4704 274.6742 14.34217514449374 IRIDIUM 129 1 42958U 17061D 26130.27410478 .00000030 00000+0 37963-5 0 9993 2 42958 86.3993 41.0981 0002088 91.7778 268.3657 14.34217923449367 IRIDIUM 119 1 42959U 17061E 26130.31216124 -.00000006 00000+0 -93388-5 0 9999 2 42959 86.3992 41.0781 0002174 87.4213 272.7232 14.34217526449386 IRIDIUM 107 1 42960U 17061F 26130.47072667 -.00000001 00000+0 -75161-5 0 9994 2 42960 86.3994 41.0327 0002364 81.7180 278.4284 14.34217476449415 IRIDIUM 132 1 42961U 17061G 26130.47705103 .00000019 00000+0 -15795-6 0 9999 2 42961 86.3993 41.0098 0002240 84.9629 275.1822 14.34232126449417 IRIDIUM 136 1 42962U 17061H 26130.50877669 .00000143 00000+0 43891-4 0 9994 2 42962 86.3994 41.0031 0002337 85.7908 274.3555 14.34216370449431 IRIDIUM 139 1 42963U 17061J 26130.44535566 .00000075 00000+0 19556-4 0 9990 2 42963 86.3994 41.0909 0002271 81.6593 278.4860 14.34217861449438 IRIDIUM 125 1 42964U 17061K 26130.29313178 .00000181 00000+0 57509-4 0 9995 2 42964 86.3998 41.2149 0002706 90.8769 269.2737 14.34219355449421 IRIDIUM 135 1 43070U 17083A 26130.54633286 .00000023 00000+0 10743-5 0 9996 2 43070 86.3968 337.7589 0002152 87.2985 272.8457 14.34217689438754 IRIDIUM 138 1 43071U 17083B 26130.50193534 .00000031 00000+0 39487-5 0 9995 2 43071 86.3981 337.4672 0002261 94.8740 265.2714 14.34217696438732 IRIDIUM 116 1 43072U 17083C 26130.53999860 .00000169 00000+0 53392-4 0 9997 2 43072 86.3967 337.7480 0002137 78.4084 281.7351 14.34221121438770 IRIDIUM 130 1 43073U 17083D 26130.50827773 .00000013 00000+0 -23733-5 0 9994 2 43073 86.3970 338.0326 0002195 81.8484 278.2960 14.34217616438719 IRIDIUM 151 1 43074U 17083E 26130.06429363 .00000149 00000+0 46150-4 0 9995 2 43074 86.3971 338.0038 0002106 86.1906 273.9531 14.34218964438678 IRIDIUM 134 1 43075U 17083F 26130.52096281 .00000051 00000+0 11152-4 0 9992 2 43075 86.3970 337.8205 0002242 85.5655 274.5796 14.34217848438700 IRIDIUM 137 1 43076U 17083G 26130.53364637 .00000002 00000+0 -63903-5 0 9996 2 43076 86.3968 337.9068 0001653 78.5798 281.5583 14.34217618438775 IRIDIUM 141 1 43077U 17083H 26130.52730529 .00000004 00000+0 -56943-5 0 9991 2 43077 86.3962 337.7423 0002031 89.6738 270.4691 14.34217511438770 IRIDIUM 153 1 43078U 17083J 26130.47948301 .00000003 00000+0 -60310-5 0 9997 2 43078 86.3926 306.2463 0002198 94.8552 265.2895 14.34217607439878 IRIDIUM 131 1 43079U 17083K 26130.51461977 .00000004 00000+0 -57201-5 0 9998 2 43079 86.3967 337.9309 0002004 88.8442 271.2983 14.34217558438702 IRIDIUM 144 1 43249U 18030A 26130.48582709 .00000048 00000+0 99627-5 0 9998 2 43249 86.3931 306.1735 0002137 87.7723 272.3717 14.34217751424730 IRIDIUM 149 1 43250U 18030B 26130.49216957 .00000061 00000+0 14770-4 0 9990 2 43250 86.3931 306.1387 0002146 92.6230 267.5211 14.34217393424752 IRIDIUM 157 1 43251U 18030C 26130.51119671 -.00000046 00000+0 -23601-4 0 9997 2 43251 86.3929 306.1829 0002042 89.9281 270.2149 14.34217147424737 IRIDIUM 140 1 43252U 18030D 26130.53022559 .00000061 00000+0 14886-4 0 9998 2 43252 86.3932 306.1877 0002214 89.2839 270.8611 14.34217702424791 IRIDIUM 145 1 43253U 18030E 26130.51753867 .00000061 00000+0 14563-4 0 9992 2 43253 86.3931 306.1653 0002127 81.8467 278.2970 14.34217842424729 IRIDIUM 146 1 43254U 18030F 26130.49851127 -.00000028 00000+0 -17086-4 0 9996 2 43254 86.3927 306.1856 0002019 87.1503 272.9924 14.34217212424732 IRIDIUM 148 1 43255U 18030G 26130.53657797 .00000059 00000+0 14161-4 0 9992 2 43255 86.3932 306.2122 0002035 90.3535 269.7894 14.34219035424774 IRIDIUM 142 1 43256U 18030H 26130.50486730 .00000057 00000+0 13159-4 0 9991 2 43256 86.3930 306.1159 0002114 84.4464 275.6973 14.34218768424737 IRIDIUM 150 1 43257U 18030J 26130.54290940 .00000013 00000+0 -24147-5 0 9995 2 43257 86.3927 306.2150 0002079 89.3938 270.7496 14.34217604424763 IRIDIUM 143 1 43258U 18030K 26130.52388167 .00000033 00000+0 45567-5 0 9993 2 43258 86.3936 306.3141 0002149 86.2707 273.8734 14.34217105424690 IRIDIUM 161 1 43478U 18047C 26130.45301796 .00000270 00000+0 74294-4 0 9991 2 43478 86.4456 104.2496 0002196 93.2287 266.9165 14.43279088419696 IRIDIUM 152 1 43479U 18047D 26130.42683200 .00000075 00000+0 19658-4 0 9998 2 43479 86.3929 104.1213 0002270 90.3111 269.8345 14.34217543417074 IRIDIUM 147 1 43480U 18047E 26130.43317278 .00000140 00000+0 42831-4 0 9992 2 43480 86.3931 104.1232 0002274 84.3088 275.8367 14.34217561417071 IRIDIUM 110 1 43481U 18047F 26130.43951697 .00000052 00000+0 11501-4 0 9994 2 43481 86.3933 104.2113 0002205 97.1134 263.0313 14.34217742417061 IRIDIUM 162 1 43482U 18047G 26130.44671483 .00000191 00000+0 50673-4 0 9995 2 43482 86.4453 104.1437 0002481 88.6105 271.5380 14.43279477419688 IRIDIUM 160 1 43569U 18061A 26130.38535147 .00000159 00000+0 49742-4 0 9995 2 43569 86.3959 72.5993 0002209 87.6289 272.5160 14.34216967407958 IRIDIUM 166 1 43570U 18061B 26130.34094890 .00000142 00000+0 43471-4 0 9993 2 43570 86.3956 72.5689 0002294 83.0392 277.1064 14.34215903407973 IRIDIUM 158 1 43571U 18061C 26130.37901073 -.00000001 00000+0 -75055-5 0 9997 2 43571 86.3957 72.5631 0002278 86.7767 273.3689 14.34217454407941 IRIDIUM 165 1 43572U 18061D 26130.33461222 .00000059 00000+0 13940-4 0 9996 2 43572 86.3958 72.6271 0002253 81.8689 278.2762 14.34217846407969 IRIDIUM 155 1 43573U 18061E 26130.36632551 .00000045 00000+0 90943-5 0 9999 2 43573 86.3953 72.4847 0002401 84.6930 275.4540 14.34217849407930 IRIDIUM 154 1 43574U 18061F 26130.34729729 .00000032 00000+0 42821-5 0 9990 2 43574 86.3959 72.6245 0002169 81.2122 278.9319 14.34217709407980 IRIDIUM 163 1 43575U 18061G 26130.39803620 .00000137 00000+0 41963-4 0 9990 2 43575 86.3955 72.5197 0002279 87.9442 272.2015 14.34218844407961 IRIDIUM 156 1 43576U 18061H 26130.37266666 .00000181 00000+0 57499-4 0 9992 2 43576 86.3955 72.5375 0002424 82.8884 277.2588 14.34217086407952 IRIDIUM 164 1 43577U 18061J 26130.35364747 .00000141 00000+0 43359-4 0 9996 2 43577 86.3956 72.5853 0002134 81.2676 278.8761 14.34215832407996 IRIDIUM 159 1 43578U 18061K 26130.32192682 .00000044 00000+0 86333-5 0 9993 2 43578 86.3954 72.5361 0002221 87.8817 272.2633 14.34217873407954 IRIDIUM 180 1 43922U 19002A 26130.39119133 -.00000008 00000+0 -10012-4 0 9991 2 43922 86.3997 9.3960 0002030 88.1517 271.9911 14.34217445383577 IRIDIUM 176 1 43923U 19002B 26130.36894370 .00000459 00000+0 68952-4 0 9996 2 43923 86.6117 9.3547 0002315 81.1315 279.0164 14.72251160393687 IRIDIUM 168 1 43924U 19002C 26130.17554316 -.00000026 00000+0 -16323-4 0 9996 2 43924 86.4001 9.5623 0002062 85.0706 275.0726 14.34217373383529 IRIDIUM 173 1 43925U 19002D 26130.37216407 .00000022 00000+0 94294-6 0 9994 2 43925 86.3995 9.3705 0002167 87.0338 273.1106 14.34217612383537 IRIDIUM 169 1 43926U 19002E 26130.48346178 .00000223 00000+0 66505-4 0 9991 2 43926 86.4251 40.9503 0002886 82.9070 277.2456 14.38608320384804 IRIDIUM 172 1 43927U 19002F 26130.36582066 .00000050 00000+0 10941-4 0 9998 2 43927 86.4000 9.3813 0002113 87.6837 272.4600 14.34217465383546 IRIDIUM 175 1 43928U 19002G 26130.49894852 .00000084 00000+0 18893-4 0 9993 2 43928 86.4485 306.2850 0003496 26.6630 333.4750 14.43592565393545 IRIDIUM 171 1 43929U 19002H 26130.41656178 .00000026 00000+0 21457-5 0 9990 2 43929 86.4009 9.6620 0002232 81.9394 278.2055 14.34217828383544 IRIDIUM 170 1 43930U 19002J 26130.37512066 .00000475 00000+0 71366-4 0 9995 2 43930 86.6120 9.3546 0002228 87.8347 272.3125 14.72251942393691 IRIDIUM 167 1 43931U 19002K 26130.41021955 .00000012 00000+0 -28273-5 0 9991 2 43931 86.3996 9.3845 0002247 77.5389 282.6058 14.34217605383543 IRIDIUM 181 1 56726U 23068S 26130.39126716 .00000233 00000+0 63332-4 0 9990 2 56726 86.4494 72.5862 0002057 85.3947 274.7488 14.43310506156989 IRIDIUM 177 1 56727U 23068T 26130.53328558 .00000678 00000+0 85684-4 0 9992 2 56727 86.1975 346.6796 0002614 89.8327 270.3194 14.80225232160794 IRIDIUM 174 1 56728U 23068U 26130.36277455 .00000484 00000+0 72796-4 0 9998 2 56728 86.6129 9.5034 0002515 89.1531 270.9974 14.72249625160459 IRIDIUM 178 1 56729U 23068V 26130.45479249 .00000760 00000+0 96588-4 0 9996 2 56729 86.6563 41.1231 0002307 84.6999 275.4486 14.80230323160788 IRIDIUM 179 1 56730U 23068W 26130.51701124 .00000559 00000+0 70086-4 0 9996 2 56730 86.6796 49.9646 0002622 80.9921 279.1597 14.80233626160792